Time,TemperatureF,DewpointF,PressureIn,WindDirection,WindDirectionDegrees,WindSpeedMPH,WindSpeedGustMPH,Humidity,HourlyPrecipIn,Conditions,Clouds,dailyrainin,SolarRadiationWatts/m^2,SoftwareType,DateUTC
2013-04-09 00:02:00,10.0,5.0,-100.00,NNW,347,6.0,26.0,80,0.00,,,0.00,1.000000,,2013-04-09 06:02:00,
2013-04-09 00:12:00,10.0,5.0,-100.00,NNW,347,6.0,26.0,80,0.00,,,0.00,1.000000,,2013-04-09 06:12:00,
2013-04-09 00:22:00,10.0,5.0,-100.00,NNW,347,6.0,26.0,80,0.00,,,0.00,1.000000,,2013-04-09 06:22:00,
2013-04-09 00:42:00,10.0,5.0,-100.00,NNE,14,6.0,17.0,80,0.00,,,0.00,0.000000,,2013-04-09 06:42:00,
2013-04-09 00:52:00,10.0,5.0,-100.00,NNE,14,6.0,17.0,80,0.00,,,0.00,0.000000,,2013-04-09 06:52:00,
2013-04-09 01:02:00,10.0,5.0,-100.00,NNE,14,6.0,17.0,80,0.00,,,0.00,0.000000,,2013-04-09 07:02:00,
2013-04-09 01:13:00,10.0,5.0,-100.00,NNE,14,6.0,17.0,80,0.00,,,0.00,0.000000,,2013-04-09 07:13:00,
2013-04-09 01:22:00,10.0,5.0,-100.00,NNE,14,6.0,17.0,80,0.00,,,0.00,0.000000,,2013-04-09 07:22:00,
2013-04-09 01:42:00,10.0,5.0,-100.00,NE,51,4.0,26.0,79,0.00,,,0.00,1.000000,,2013-04-09 07:42:00,
2013-04-09 01:53:00,10.0,5.0,-100.00,NE,51,4.0,26.0,79,0.00,,,0.00,1.000000,,2013-04-09 07:53:00,
2013-04-09 02:03:00,10.0,5.0,-100.00,NE,51,4.0,26.0,79,0.00,,,0.00,1.000000,,2013-04-09 08:03:00,
2013-04-09 02:12:00,10.0,5.0,-100.00,NE,51,4.0,26.0,79,0.00,,,0.00,1.000000,,2013-04-09 08:12:00,
2013-04-09 02:22:00,10.0,5.0,-100.00,NE,51,4.0,26.0,79,0.00,,,0.00,1.000000,,2013-04-09 08:22:00,
2013-04-09 02:42:00,7.0,2.0,-100.00,NNW,343,5.0,15.0,79,0.00,,,0.00,1.000000,,2013-04-09 08:42:00,
2013-04-09 02:52:00,7.0,2.0,-100.00,NNW,343,5.0,15.0,79,0.00,,,0.00,1.000000,,2013-04-09 08:52:00,
2013-04-09 03:02:00,7.0,2.0,-100.00,NNW,343,5.0,15.0,79,0.00,,,0.00,1.000000,,2013-04-09 09:02:00,
2013-04-09 03:12:00,7.0,2.0,-100.00,NNW,343,5.0,15.0,79,0.00,,,0.00,1.000000,,2013-04-09 09:12:00,
2013-04-09 03:22:00,7.0,2.0,-100.00,NNW,343,5.0,15.0,79,0.00,,,0.00,1.000000,,2013-04-09 09:22:00,
2013-04-09 03:44:00,6.0,1.0,-100.00,NNW,329,4.0,17.0,78,0.00,,,0.00,1.000000,,2013-04-09 09:44:00,
2013-04-09 03:53:00,6.0,1.0,-100.00,NNW,329,4.0,17.0,78,0.00,,,0.00,1.000000,,2013-04-09 09:53:00,
2013-04-09 04:03:00,6.0,1.0,-100.00,NNW,329,4.0,17.0,78,0.00,,,0.00,1.000000,,2013-04-09 10:03:00,
2013-04-09 04:13:00,6.0,1.0,-100.00,NNW,329,4.0,17.0,78,0.00,,,0.00,1.000000,,2013-04-09 10:13:00,
2013-04-09 04:23:00,6.0,1.0,-100.00,NNW,329,4.0,17.0,78,0.00,,,0.00,1.000000,,2013-04-09 10:23:00,
2013-04-09 04:43:00,6.0,1.0,-100.00,NNW,345,7.0,17.0,79,0.00,,,0.00,1.000000,,2013-04-09 10:43:00,
2013-04-09 04:53:00,6.0,1.0,-100.00,NNW,345,7.0,17.0,79,0.00,,,0.00,1.000000,,2013-04-09 10:53:00,
2013-04-09 05:02:00,6.0,1.0,-100.00,NNW,345,7.0,17.0,79,0.00,,,0.00,1.000000,,2013-04-09 11:02:00,
2013-04-09 05:12:00,6.0,1.0,-100.00,NNW,345,7.0,17.0,79,0.00,,,0.00,1.000000,,2013-04-09 11:12:00,
2013-04-09 05:22:00,6.0,1.0,-100.00,NNW,345,7.0,17.0,79,0.00,,,0.00,1.000000,,2013-04-09 11:22:00,
2013-04-09 05:43:00,5.0,0.0,-100.00,ENE,76,5.0,19.0,78,0.00,,,-99.99,1.000000,,2013-04-09 11:43:00,
2013-04-09 05:52:00,5.0,0.0,-100.00,ENE,76,5.0,19.0,78,0.00,,,-99.99,1.000000,,2013-04-09 11:52:00,
2013-04-09 06:02:00,5.0,0.0,-100.00,ENE,76,5.0,19.0,78,0.00,,,-99.99,1.000000,,2013-04-09 12:02:00,
2013-04-09 06:12:00,5.0,0.0,-100.00,ENE,76,5.0,19.0,78,0.00,,,-99.99,1.000000,,2013-04-09 12:12:00,
2013-04-09 06:22:00,5.0,0.0,-100.00,ENE,76,5.0,19.0,78,0.00,,,-99.99,1.000000,,2013-04-09 12:22:00,
2013-04-09 06:43:00,5.0,-1.0,-100.00,NNE,26,6.0,18.0,74,0.00,,,0.00,1.000000,,2013-04-09 12:43:00,
2013-04-09 06:53:00,5.0,-1.0,-100.00,NNE,26,6.0,18.0,74,0.00,,,0.00,1.000000,,2013-04-09 12:53:00,
2013-04-09 07:02:00,5.0,-1.0,-100.00,NNE,26,6.0,18.0,74,0.00,,,0.00,1.000000,,2013-04-09 13:02:00,
2013-04-09 07:12:00,5.0,-1.0,-100.00,NNE,26,6.0,18.0,74,0.00,,,0.00,1.000000,,2013-04-09 13:12:00,
2013-04-09 07:22:00,5.0,-1.0,-100.00,NNE,26,6.0,18.0,74,0.00,,,0.00,1.000000,,2013-04-09 13:22:00,
2013-04-09 07:43:00,5.0,-2.0,-100.00,NNW,333,7.0,17.0,73,0.00,,,0.00,23.000000,,2013-04-09 13:43:00,
2013-04-09 07:53:00,5.0,-2.0,-100.00,NNW,333,7.0,17.0,73,0.00,,,0.00,23.000000,,2013-04-09 13:53:00,
2013-04-09 08:03:00,5.0,-2.0,-100.00,NNW,333,7.0,17.0,73,0.00,,,0.00,23.000000,,2013-04-09 14:03:00,
2013-04-09 08:12:00,5.0,-2.0,-100.00,NNW,333,7.0,17.0,73,0.00,,,0.00,23.000000,,2013-04-09 14:12:00,
2013-04-09 08:22:00,5.0,-2.0,-100.00,NNW,333,7.0,17.0,73,0.00,,,0.00,23.000000,,2013-04-09 14:22:00,
2013-04-09 08:43:00,7.0,0.0,-100.00,NNE,19,5.0,18.0,74,0.00,,,0.00,73.000000,,2013-04-09 14:43:00,
2013-04-09 08:52:00,7.0,0.0,-100.00,NNE,19,5.0,18.0,74,0.00,,,0.00,73.000000,,2013-04-09 14:52:00,
2013-04-09 09:02:00,7.0,0.0,-100.00,NNE,19,5.0,18.0,74,0.00,,,0.00,73.000000,,2013-04-09 15:02:00,
2013-04-09 09:12:00,7.0,0.0,-100.00,NNE,19,5.0,18.0,74,0.00,,,0.00,73.000000,,2013-04-09 15:12:00,
2013-04-09 09:22:00,7.0,0.0,-100.00,NNE,19,5.0,18.0,74,0.00,,,0.00,73.000000,,2013-04-09 15:22:00,
2013-04-09 09:44:00,8.0,2.0,-100.00,WSW,240,4.0,17.0,75,0.00,,,0.00,75.000000,,2013-04-09 15:44:00,
2013-04-09 09:53:00,8.0,2.0,-100.00,WSW,240,4.0,17.0,75,0.00,,,0.00,75.000000,,2013-04-09 15:53:00,
2013-04-09 10:03:00,8.0,2.0,-100.00,WSW,240,4.0,17.0,75,0.00,,,0.00,75.000000,,2013-04-09 16:03:00,
2013-04-09 10:13:00,8.0,2.0,-100.00,WSW,240,4.0,17.0,75,0.00,,,0.00,75.000000,,2013-04-09 16:13:00,
2013-04-09 10:23:00,8.0,2.0,-100.00,WSW,240,4.0,17.0,75,0.00,,,0.00,75.000000,,2013-04-09 16:23:00,
2013-04-09 10:43:00,7.0,2.0,-100.00,WSW,247,5.0,18.0,78,0.00,,,0.00,47.000000,,2013-04-09 16:43:00,
2013-04-09 10:54:00,7.0,2.0,-100.00,WSW,247,5.0,18.0,78,0.00,,,0.00,47.000000,,2013-04-09 16:54:00,
2013-04-09 11:02:00,7.0,2.0,-100.00,WSW,247,5.0,18.0,78,0.00,,,0.00,47.000000,,2013-04-09 17:02:00,
2013-04-09 11:12:00,7.0,2.0,-100.00,WSW,247,5.0,18.0,78,0.00,,,0.00,47.000000,,2013-04-09 17:12:00,
2013-04-09 11:23:00,7.0,2.0,-100.00,WSW,247,5.0,18.0,78,0.00,,,0.00,47.000000,,2013-04-09 17:23:00,
2013-04-09 11:43:00,11.0,5.0,-100.00,North,2,4.0,11.0,75,0.00,,,0.00,100.000000,,2013-04-09 17:43:00,
2013-04-09 11:54:00,11.0,5.0,-100.00,North,2,4.0,11.0,75,0.00,,,0.00,100.000000,,2013-04-09 17:54:00,
2013-04-09 12:02:00,11.0,5.0,-100.00,North,2,4.0,11.0,75,0.00,,,0.00,100.000000,,2013-04-09 18:02:00,
2013-04-09 12:12:00,11.0,5.0,-100.00,North,2,4.0,11.0,75,0.00,,,0.00,100.000000,,2013-04-09 18:12:00,
2013-04-09 12:22:00,11.0,5.0,-100.00,North,2,4.0,11.0,75,0.00,,,0.00,100.000000,,2013-04-09 18:22:00,
2013-04-09 12:43:00,14.0,5.0,-100.00,WNW,292,4.0,15.0,67,0.00,,,0.00,226.000000,,2013-04-09 18:43:00,
2013-04-09 12:53:00,14.0,5.0,-100.00,WNW,292,4.0,15.0,67,0.00,,,0.00,226.000000,,2013-04-09 18:53:00,
2013-04-09 13:03:00,14.0,5.0,-100.00,WNW,292,4.0,15.0,67,0.00,,,0.00,226.000000,,2013-04-09 19:03:00,
2013-04-09 13:12:00,14.0,5.0,-100.00,WNW,292,4.0,15.0,67,0.00,,,0.00,226.000000,,2013-04-09 19:12:00,
2013-04-09 13:22:00,14.0,5.0,-100.00,WNW,292,4.0,15.0,67,0.00,,,0.00,226.000000,,2013-04-09 19:22:00,
2013-04-09 13:53:00,14.0,5.0,-100.00,NNW,339,5.0,17.0,68,0.00,,,0.00,214.000000,,2013-04-09 19:53:00,
2013-04-09 14:02:00,14.0,5.0,-100.00,NNW,339,5.0,17.0,68,0.00,,,0.00,214.000000,,2013-04-09 20:02:00,
2013-04-09 14:12:00,14.0,5.0,-100.00,NNW,339,5.0,17.0,68,0.00,,,0.00,214.000000,,2013-04-09 20:12:00,
2013-04-09 14:22:00,14.0,5.0,-100.00,NNW,339,5.0,17.0,68,0.00,,,0.00,214.000000,,2013-04-09 20:22:00,
2013-04-09 14:44:00,14.0,5.0,-100.00,NNW,341,6.0,15.0,67,0.00,,,0.00,233.000000,,2013-04-09 20:44:00,
2013-04-09 14:53:00,14.0,5.0,-100.00,NNW,341,6.0,15.0,67,0.00,,,0.00,233.000000,,2013-04-09 20:53:00,
2013-04-09 15:02:00,14.0,5.0,-100.00,NNW,341,6.0,15.0,67,0.00,,,0.00,233.000000,,2013-04-09 21:02:00,
2013-04-09 15:13:00,14.0,5.0,-100.00,NNW,341,6.0,15.0,67,0.00,,,0.00,233.000000,,2013-04-09 21:13:00,
2013-04-09 15:22:00,14.0,5.0,-100.00,NNW,341,6.0,15.0,67,0.00,,,0.00,233.000000,,2013-04-09 21:22:00,
2013-04-09 15:53:00,12.0,4.0,-100.00,North,10,5.0,14.0,71,0.00,,,0.00,142.000000,,2013-04-09 21:53:00,
2013-04-09 16:03:00,12.0,4.0,-100.00,North,10,5.0,14.0,71,0.00,,,0.00,142.000000,,2013-04-09 22:03:00,
2013-04-09 16:12:00,12.0,4.0,-100.00,North,10,5.0,14.0,71,0.00,,,0.00,142.000000,,2013-04-09 22:12:00,
2013-04-09 16:23:00,12.0,4.0,-100.00,North,10,5.0,14.0,71,0.00,,,0.00,142.000000,,2013-04-09 22:23:00,
2013-04-09 16:43:00,10.0,3.0,-100.00,ENE,75,4.0,14.0,73,0.00,,,0.00,82.000000,,2013-04-09 22:43:00,
2013-04-09 16:53:00,10.0,3.0,-100.00,ENE,75,4.0,14.0,73,0.00,,,0.00,82.000000,,2013-04-09 22:53:00,
2013-04-09 17:03:00,10.0,3.0,-100.00,ENE,75,4.0,14.0,73,0.00,,,0.00,82.000000,,2013-04-09 23:03:00,
2013-04-09 17:12:00,10.0,3.0,-100.00,ENE,75,4.0,14.0,73,0.00,,,0.00,82.000000,,2013-04-09 23:12:00,
2013-04-09 17:22:00,10.0,3.0,-100.00,ENE,75,4.0,14.0,73,0.00,,,0.00,82.000000,,2013-04-09 23:22:00,
2013-04-09 17:43:00,9.0,3.0,-100.00,North,3,4.0,14.0,77,0.00,,,0.00,99.000000,,2013-04-09 23:43:00,
2013-04-09 17:53:00,9.0,3.0,-100.00,North,3,4.0,14.0,77,0.00,,,0.00,99.000000,,2013-04-09 23:53:00,
2013-04-09 18:03:00,9.0,3.0,-100.00,North,3,4.0,14.0,77,0.00,,,0.00,99.000000,,2013-04-10 00:03:00,
2013-04-09 18:12:00,9.0,3.0,-100.00,North,3,4.0,14.0,77,0.00,,,0.00,99.000000,,2013-04-10 00:12:00,
2013-04-09 18:22:00,9.0,3.0,-100.00,North,3,4.0,14.0,77,0.00,,,0.00,99.000000,,2013-04-10 00:22:00,
2013-04-09 18:43:00,8.0,3.0,-100.00,NNE,25,4.0,12.0,79,0.00,,,-99.99,40.000000,,2013-04-10 00:43:00,
2013-04-09 18:53:00,8.0,3.0,-100.00,NNE,25,4.0,12.0,79,0.00,,,-99.99,40.000000,,2013-04-10 00:53:00,
2013-04-09 19:02:00,8.0,3.0,-100.00,NNE,25,4.0,12.0,79,0.00,,,-99.99,40.000000,,2013-04-10 01:02:00,
2013-04-09 19:12:00,8.0,3.0,-100.00,NNE,25,4.0,12.0,79,0.00,,,-99.99,40.000000,,2013-04-10 01:12:00,
2013-04-09 19:23:00,8.0,3.0,-100.00,NNE,25,4.0,12.0,79,0.00,,,-99.99,40.000000,,2013-04-10 01:23:00,
2013-04-09 19:43:00,7.0,2.0,-100.00,NNW,342,3.0,10.0,78,0.00,,,0.00,21.000000,,2013-04-10 01:43:00,
2013-04-09 19:53:00,7.0,2.0,-100.00,NNW,342,3.0,10.0,78,0.00,,,0.00,21.000000,,2013-04-10 01:53:00,
2013-04-09 20:02:00,7.0,2.0,-100.00,NNW,342,3.0,10.0,78,0.00,,,0.00,21.000000,,2013-04-10 02:02:00,
2013-04-09 20:12:00,7.0,2.0,-100.00,NNW,342,3.0,10.0,78,0.00,,,0.00,21.000000,,2013-04-10 02:12:00,
2013-04-09 20:22:00,7.0,2.0,-100.00,NNW,342,3.0,10.0,78,0.00,,,0.00,21.000000,,2013-04-10 02:22:00,
2013-04-09 20:43:00,7.0,2.0,-100.00,NE,43,4.0,10.0,80,0.00,,,0.00,1.000000,,2013-04-10 02:43:00,
2013-04-09 20:53:00,7.0,2.0,-100.00,NE,43,4.0,10.0,80,0.00,,,0.00,1.000000,,2013-04-10 02:53:00,
2013-04-09 21:03:00,7.0,2.0,-100.00,NE,43,4.0,10.0,80,0.00,,,0.00,1.000000,,2013-04-10 03:03:00,
2013-04-09 21:12:00,7.0,2.0,-100.00,NE,43,4.0,10.0,80,0.00,,,0.00,1.000000,,2013-04-10 03:12:00,
2013-04-09 21:22:00,7.0,2.0,-100.00,NE,43,4.0,10.0,80,0.00,,,0.00,1.000000,,2013-04-10 03:22:00,
2013-04-09 21:43:00,7.0,2.0,-100.00,NNW,332,3.0,7.0,80,0.00,,,0.00,0.000000,,2013-04-10 03:43:00,
2013-04-09 21:53:00,7.0,2.0,-100.00,NNW,332,3.0,7.0,80,0.00,,,0.00,0.000000,,2013-04-10 03:53:00,
2013-04-09 22:03:00,7.0,2.0,-100.00,NNW,332,3.0,7.0,80,0.00,,,0.00,0.000000,,2013-04-10 04:03:00,
2013-04-09 22:13:00,7.0,2.0,-100.00,NNW,332,3.0,7.0,80,0.00,,,0.00,0.000000,,2013-04-10 04:13:00,
2013-04-09 22:23:00,7.0,2.0,-100.00,NNW,332,3.0,7.0,80,0.00,,,0.00,0.000000,,2013-04-10 04:23:00,
2013-04-09 22:43:00,7.0,2.0,-100.00,ENE,64,3.0,10.0,80,0.00,,,0.00,0.000000,,2013-04-10 04:43:00,
2013-04-09 22:53:00,7.0,2.0,-100.00,ENE,64,3.0,10.0,80,0.00,,,0.00,0.000000,,2013-04-10 04:53:00,
2013-04-09 23:02:00,7.0,2.0,-100.00,ENE,64,3.0,10.0,80,0.00,,,0.00,0.000000,,2013-04-10 05:02:00,
2013-04-09 23:13:00,7.0,2.0,-100.00,ENE,64,3.0,10.0,80,0.00,,,0.00,0.000000,,2013-04-10 05:13:00,
2013-04-09 23:23:00,7.0,2.0,-100.00,ENE,64,3.0,10.0,80,0.00,,,0.00,0.000000,,2013-04-10 05:23:00,
2013-04-09 23:43:00,7.0,2.0,-100.00,WSW,239,4.0,13.0,79,0.00,,,0.00,1.000000,,2013-04-10 05:43:00,
2013-04-09 23:53:00,7.0,2.0,-100.00,WSW,239,4.0,13.0,79,0.00,,,0.00,1.000000,,2013-04-10 05:53:00,